Weather History for Morristown, NJ

Change the Weather History Date:

Saturday, December 21, 2013

  Actual Average Record
Temperature  
Mean Temperature 45 °F -  
Max Temperature 57 °F 40 °F 60 °F (1957)
Min Temperature 33 °F 22 °F -9 °F (1942)
Degree Days  
Heating Degree Days 20    
Moisture  
Dew Point 39 °F    
Average Humidity 83    
Maximum Humidity 93    
Minimum Humidity 67    
Precipitation  
Precipitation 0.00 in - - ()
Sea Level Pressure  
Sea Level Pressure 29.96 in    
Wind  
Wind Speed 1 mph (SW)    
Max Wind Speed 10 mph    
Max Gust Speed 18 mph    
Visibility 10 miles    
Events      
Averages and records for this station are not official NWS values.
T = Trace of Precipitation, MM = Missing Value Source: NWS Daily Summary

Daily Weather History Graph

Daily Weather History Graph

Search for Another Location

Airport:

Trip Planner

Search our weather history database for the weather conditions in past years. The results will help you decide how hot, cold, wet, or windy it might be!

Date:

Astronomy

Dec. 21, 2013 Rise Set
Actual Time 7:18 AM EST 4:33 PM EST
Civil Twilight 6:47 AM EST 5:04 PM EST
Nautical Twilight 6:12 AM EST 5:38 PM EST
Astronomical Twilight 5:39 AM EST 6:12 PM EST
Moon 8:48 PM EST (12/21) 9:42 AM EST (12/21)
Length of Visible Light 10h 16m
Length of Day
9h 14m
Waning Gibbous, 84% of the Moon is Illuminated
Dec 21
Waning Gibbous
Dec 25
Last Quarter
Jan 1
New
Jan 7
First Quarter
Jan 15
Full

Hourly Weather History & Observations

Time (EST) Temp. Dew Point Humidity Pressure Visibility Wind Dir Wind Speed Gust Speed Precip Events Conditions
12:15 AM 39.2 °F 32.0 °F 75% 29.98 in 10.0 mi Calm Calm - N/A   Light Drizzle
12:35 AM 39.2 °F 32.0 °F 75% 29.98 in 10.0 mi Calm Calm - N/A   Mostly Cloudy
12:55 AM 39.2 °F 33.8 °F 81% 29.98 in 10.0 mi Calm Calm - N/A   Overcast
1:15 AM 39.2 °F 32.0 °F 75% 29.98 in 10.0 mi Calm Calm - N/A   Overcast
1:35 AM 39.2 °F 33.8 °F 81% 29.98 in 10.0 mi Calm Calm - N/A   Mostly Cloudy
1:55 AM 39.2 °F 33.8 °F 81% 29.98 in 10.0 mi Calm Calm - N/A   Scattered Clouds
2:15 AM 37.4 °F 32.0 °F 81% 29.98 in 10.0 mi Calm Calm - N/A   Clear
2:35 AM 37.4 °F 33.8 °F 87% 29.99 in 10.0 mi Calm Calm - N/A   Clear
2:55 AM 35.6 °F 32.0 °F 87% 29.99 in 10.0 mi Calm Calm - N/A   Clear
3:15 AM 35.6 °F 32.0 °F 87% 29.99 in 10.0 mi Calm Calm - N/A   Clear
3:35 AM 35.6 °F 32.0 °F 87% 29.98 in 10.0 mi Calm Calm - N/A   Clear
3:55 AM 35.6 °F 32.0 °F 87% 29.97 in 10.0 mi Calm Calm - N/A   Clear
4:15 AM 35.6 °F 32.0 °F 87% 29.97 in 10.0 mi Calm Calm - N/A   Clear
4:35 AM 35.6 °F 32.0 °F 87% 29.97 in 10.0 mi Calm Calm - N/A   Clear
4:55 AM 35.6 °F 32.0 °F 87% 29.97 in 10.0 mi Calm Calm - N/A   Clear
5:15 AM 33.8 °F 32.0 °F 93% 29.98 in 10.0 mi Calm Calm - N/A   Clear
5:35 AM 35.6 °F 32.0 °F 87% 29.98 in 10.0 mi Calm Calm - N/A   Clear
6:45 AM 33.8 °F 32.0 °F 93% 29.98 in 10.0 mi Calm Calm - N/A   Mostly Cloudy
7:45 AM 33.8 °F 32.0 °F 93% 29.99 in 10.0 mi Calm Calm - N/A   Mostly Cloudy
8:45 AM 42.8 °F 39.2 °F 87% 29.99 in 10.0 mi Calm Calm - N/A   Mostly Cloudy
9:45 AM 50.0 °F 42.8 °F 76% 29.99 in 10.0 mi SW 9.2 mph - N/A   Mostly Cloudy
10:45 AM 51.8 °F 42.8 °F 71% 29.99 in 10.0 mi SW 10.4 mph - N/A   Mostly Cloudy
11:45 AM 53.6 °F 44.6 °F 72% 29.95 in 10.0 mi West 5.8 mph - N/A   Scattered Clouds
12:45 PM 53.6 °F 44.6 °F 72% 29.93 in 10.0 mi WSW 8.1 mph 18.4 mph N/A   Scattered Clouds
1:45 PM 57.2 °F 46.4 °F 67% 29.92 in 10.0 mi West 8.1 mph - N/A   Scattered Clouds
2:45 PM 57.2 °F 46.4 °F 67% 29.92 in 10.0 mi West 5.8 mph - N/A   Scattered Clouds
3:45 PM 57.2 °F 46.4 °F 67% 29.93 in 10.0 mi West 5.8 mph - N/A   Mostly Cloudy
4:45 PM 48.2 °F 42.8 °F 82% 29.94 in 10.0 mi Calm Calm - N/A   Mostly Cloudy
5:45 PM 42.8 °F 39.2 °F 87% 29.95 in 10.0 mi Calm Calm - N/A   Scattered Clouds
6:45 PM 44.6 °F 41.0 °F 87% 29.95 in 10.0 mi Calm Calm - N/A   Mostly Cloudy
7:45 PM 42.8 °F 39.2 °F 87% 29.95 in 10.0 mi Calm Calm - N/A   Scattered Clouds
8:45 PM 41.0 °F 39.2 °F 93% 29.94 in 10.0 mi Calm Calm - N/A   Scattered Clouds
9:55 PM 42.8 °F 41.0 °F 93% 29.93 in 10.0 mi Calm Calm - N/A   Clear
10:15 PM 50.0 °F 46.4 °F 87% 29.92 in 10.0 mi Calm Calm - N/A   Clear
10:35 PM 46.4 °F 42.8 °F 87% 29.92 in 10.0 mi Calm Calm - N/A   Clear
10:55 PM 53.6 °F 50.0 °F 88% 29.92 in 10.0 mi SSW 4.6 mph - N/A   Scattered Clouds
11:15 PM 57.2 °F 51.8 °F 82% 29.92 in 10.0 mi South 3.5 mph - N/A   Scattered Clouds
11:35 PM 55.4 °F 51.8 °F 88% 29.91 in 10.0 mi SSW 3.5 mph - N/A   Scattered Clouds
11:55 PM 57.2 °F 51.8 °F 82% 29.91 in 10.0 mi Calm Calm - N/A   Mostly Cloudy